Location: Petrozavodsk
(61.7955°N, 34.3748°E)
Time: 14:12:58
(UTC+03:00)

BlueWalker 3 - Pass Details

Date: 31 March 2023
Orbit: 493 x 513 km, 53.2° (Epoch: 09 June)

Event Time Altitude Azimuth Distance (km) Brightness Sun altitude
Rises 20:31:24 0° 215° (SW) 2,618 5.7 -8.2°
Reaches altitude 10° 20:34:17 10° 192° (SSW) 1,730 4.5 -8.5°
Maximum altitude 20:36:38 15° 155° (SSE) 1,417 3.8 -8.7°
Enters shadow 20:38:24 12° 126° (SE) 1,599 3.8 -8.9°
